Stations météo

réclame
Mon MeteoGroup
Treviso/S. Angelo, Italie (16099): Température de l'air & dewpoint: 12.01.2019 12:00:00 - 18.01.2019 12:00:00 (CET)Treviso/S. Angelo, Italie (16099): Vitesse du vent: 12.01.2019 12:00:00 - 18.01.2019 12:00:00 (CET)Treviso/S. Angelo, Italie (16099): Direction du vent: 12.01.2019 12:00:00 - 18.01.2019 12:00:00 (CET)Treviso/S. Angelo, Italie (16099): reduced air pressure: 12.01.2019 12:00:00 - 18.01.2019 12:00:00 (CET)Treviso/S. Angelo, Italie (16099): visibility: 12.01.2019 12:00:00 - 18.01.2019 12:00:00 (CET)Treviso/S. Angelo, Italie (16099): Quantités de précipitations: 12.01.2019 12:00:00 - 18.01.2019 12:00:00 (CET)
Date & Time tt [°C] td [°C] ff [km/h] ff [knt] dd ppp [hPa] vv [km] rr [mm]
18.01.2019 12:00:00 - - - - - - - -
18.01.2019 11:00:00 - - - - - - - -
18.01.2019 10:00:00 6,2 5,9 2 1 N 1012,2 2,5 0,0
18.01.2019 09:00:00 - - - - - - - -
18.01.2019 08:00:00 - - - - - - - -
18.01.2019 07:00:00 5,8 5,6 4 2 W 1009,4 - -
18.01.2019 06:00:00 - - - - - - - -
18.01.2019 05:00:00 - - - - - - - -
18.01.2019 04:00:00 5,9 5,7 5 3 WNW 1008,9 - 0,0
18.01.2019 03:00:00 - - - - - - - -
18.01.2019 02:00:00 - - - - - - - -
18.01.2019 01:00:00 6,1 5,9 4 2 N 1009,6 - -
18.01.2019 00:00:00 - - - - - - - -
17.01.2019 23:00:00 - - - - - - - -
17.01.2019 22:00:00 5,9 5,5 4 2 NNE 1010,8 5 0,0
17.01.2019 21:00:00 - - - - - - - -
17.01.2019 20:00:00 - - - - - - - -
17.01.2019 19:00:00 5,7 4,6 5 3 NNE 1011,8 6 -
17.01.2019 18:00:00 - - - - - - - -
17.01.2019 17:00:00 - - - - - - - -
17.01.2019 16:00:00 7,8 2,9 5 3 N 1012,7 10 0,0
17.01.2019 15:00:00 - - - - - - - -
17.01.2019 14:00:00 - - - - - - - -
17.01.2019 13:00:00 7,9 1,9 5 3 N 1014,3 10 -
17.01.2019 12:00:00 - - - - - - - -
17.01.2019 11:00:00 - - - - - - - -
17.01.2019 10:00:00 7,4 2,1 4 2 NE 1016,1 20 0,0
17.01.2019 09:00:00 - - - - - - - -
17.01.2019 08:00:00 - - - - - - - -
17.01.2019 07:00:00 4,6 1,1 4 2 NNW 1016,1 - -
17.01.2019 06:00:00 - - - - - - - -
17.01.2019 05:00:00 - - - - - - - -
17.01.2019 04:00:00 3,1 0,7 2 1 - 1017,0 - 0,0
17.01.2019 03:00:00 - - - - - - - -
17.01.2019 02:00:00 - - - - - - - -
17.01.2019 01:00:00 3,6 0,4 4 2 N 1018,2 - -
17.01.2019 00:00:00 - - - - - - - -
16.01.2019 23:00:00 - - - - - - - -
16.01.2019 22:00:00 3,6 0,6 2 1 SSW 1019,1 10 0,0
16.01.2019 21:00:00 - - - - - - - -
16.01.2019 20:00:00 - - - - - - - -
16.01.2019 19:00:00 4,6 0,0 2 1 NE 1018,9 10 -
16.01.2019 18:00:00 - - - - - - - -
16.01.2019 17:00:00 - - - - - - - -
16.01.2019 16:00:00 9,2 -0,1 2 1 N 1018,5 - 0,0
16.01.2019 15:00:00 - - - - - - - -
16.01.2019 14:00:00 - - - - - - - -
16.01.2019 13:00:00 9,4 -2,4 5 3 S 1019,2 - -
16.01.2019 12:00:00 - - - - - - - -
16.01.2019 11:00:00 - - - - - - - -
16.01.2019 10:00:00 4,2 -1,8 2 1 N 1020,4 - 0,0
16.01.2019 09:00:00 - - - - - - - -
16.01.2019 08:00:00 - - - - - - - -
16.01.2019 07:00:00 -1,2 -3,8 2 1 WSW 1019,4 - -
16.01.2019 06:00:00 - - - - - - - -
16.01.2019 05:00:00 - - - - - - - -
16.01.2019 04:00:00 0,8 -2,8 4 2 W 1019,5 - 0,0
16.01.2019 03:00:00 - - - - - - - -
16.01.2019 02:00:00 - - - - - - - -
16.01.2019 01:00:00 1,3 -2,9 4 2 NNE 1019,6 - -
16.01.2019 00:00:00 - - - - - - - -
15.01.2019 23:00:00 - - - - - - - -
15.01.2019 22:00:00 2,6 -1,0 4 2 ENE 1020,0 - 0,0
15.01.2019 21:00:00 - - - - - - - -
15.01.2019 20:00:00 - - - - - - - -
15.01.2019 19:00:00 3,9 0,7 4 2 N 1019,1 - -
15.01.2019 18:00:00 - - - - - - - -
15.01.2019 17:00:00 - - - - - - - -
15.01.2019 16:00:00 8,9 -1,5 11 6 SE 1018,1 - 0,0
15.01.2019 15:00:00 - - - - - - - -
15.01.2019 14:00:00 - - - - - - - -
15.01.2019 13:00:00 11,4 -6,0 5 3 S 1018,1 10 -
15.01.2019 12:00:00 - - - - - - - -
15.01.2019 11:00:00 - - - - - - - -
15.01.2019 10:00:00 6,4 -4,3 4 2 NNE 1018,1 - 0,0
15.01.2019 09:00:00 - - - - - - - -
15.01.2019 08:00:00 - - - - - - - -
15.01.2019 07:00:00 5,6 -10,0 9 5 W 1015,6 - -
15.01.2019 06:00:00 - - - - - - - -
15.01.2019 05:00:00 - - - - - - - -
15.01.2019 04:00:00 8,7 -11,8 13 7 NNW 1013,6 - 0,0
15.01.2019 03:00:00 - - - - - - - -
15.01.2019 02:00:00 - - - - - - - -
15.01.2019 01:00:00 9,5 -8,9 15 8 NW 1012,4 - -
15.01.2019 00:00:00 - - - - - - - -
14.01.2019 23:00:00 - - - - - - - -
14.01.2019 22:00:00 9,7 -4,9 13 7 NNW 1010,1 20 0,0
14.01.2019 21:00:00 - - - - - - - -
14.01.2019 20:00:00 - - - - - - - -
14.01.2019 19:00:00 12,2 -8,3 13 7 NW 1005,1 20 -
14.01.2019 18:00:00 - - - - - - - -
14.01.2019 17:00:00 - - - - - - - -
14.01.2019 16:00:00 10,1 1,6 5 3 W 1003,2 25 0,0
14.01.2019 15:00:00 - - - - - - - -
14.01.2019 14:00:00 - - - - - - - -
14.01.2019 13:00:00 8,7 1,8 16 9 SW 1002,6 20 -
14.01.2019 12:00:00 - - - - - - - -
14.01.2019 11:00:00 - - - - - - - -
14.01.2019 10:00:00 3,3 -0,2 5 3 WNW 1002,6 - 0,0
14.01.2019 09:00:00 - - - - - - - -
14.01.2019 08:00:00 - - - - - - - -
14.01.2019 07:00:00 0,8 -1,2 8 4 N 1001,3 - -
14.01.2019 06:00:00 - - - - - - - -
14.01.2019 05:00:00 - - - - - - - -
14.01.2019 04:00:00 -0,5 -2,1 8 4 N 1000,2 - 0,0
14.01.2019 03:00:00 - - - - - - - -
14.01.2019 02:00:00 - - - - - - - -
14.01.2019 01:00:00 -0,6 -1,6 0 0 N 1001,3 - -
14.01.2019 00:00:00 - - - - - - - -
13.01.2019 23:00:00 - - - - - - - -
13.01.2019 22:00:00 1,1 -0,9 4 2 N 1004,6 - 0,0
13.01.2019 21:00:00 - - - - - - - -
13.01.2019 20:00:00 - - - - - - - -
13.01.2019 19:00:00 3,5 -0,6 2 1 N 1006,9 - -
13.01.2019 18:00:00 - - - - - - - -
13.01.2019 17:00:00 - - - - - - - -
13.01.2019 16:00:00 6,9 -1,0 4 2 WSW 1008,5 - 0,0
13.01.2019 15:00:00 - - - - - - - -
13.01.2019 14:00:00 - - - - - - - -
13.01.2019 13:00:00 7,4 -0,6 9 5 SW 1011,1 20 -
13.01.2019 12:00:00 - - - - - - - -
13.01.2019 11:00:00 - - - - - - - -
13.01.2019 10:00:00 2,5 -2,2 5 3 WSW 1012,4 15 0,0
13.01.2019 09:00:00 - - - - - - - -
13.01.2019 08:00:00 - - - - - - - -
13.01.2019 07:00:00 -1,8 -3,4 4 2 N 1011,8 - -
13.01.2019 06:00:00 - - - - - - - -
13.01.2019 05:00:00 - - - - - - - -
13.01.2019 04:00:00 0,7 -2,9 4 2 NW 1012,0 - 0,0
13.01.2019 03:00:00 - - - - - - - -
13.01.2019 02:00:00 - - - - - - - -
13.01.2019 01:00:00 0,5 -2,3 4 2 WNW 1013,4 - -
13.01.2019 00:00:00 - - - - - - - -
12.01.2019 23:00:00 - - - - - - - -
12.01.2019 22:00:00 0,3 -1,7 0 0 N 1015,5 7 0,0
12.01.2019 21:00:00 - - - - - - - -
12.01.2019 20:00:00 - - - - - - - -
12.01.2019 19:00:00 1,8 -1,6 4 2 WSW 1016,9 8 -
12.01.2019 18:00:00 - - - - - - - -
12.01.2019 17:00:00 - - - - - - - -
12.01.2019 16:00:00 5,1 -1,9 2 1 N 1017,7 15 0,0
12.01.2019 15:00:00 - - - - - - - -
12.01.2019 14:00:00 - - - - - - - -
12.01.2019 13:00:00 5,2 -2,2 5 3 N 1018,6 - -
12.01.2019 12:00:00 - - - - - - - -

tt = Température de l'air
td = dewpoint
ff = Vitesse du vent
dd = Direction du vent
ppp = reduced air pressure
vv = visibility
rr = Quantités de précipitations

stations d'obs. à proximité